Theta_e
338 336 332 330 331 332 333 334 335 335 335 338 341 342 343 344 344 344 345 345 346 346 346 345 344 343 343 343 341 335 331 331 331 331 332 332 332 332 332 332 332 331 331 331 330 329 329 327 326 325 325 326 326 326 325 324 324 323 323 322 322 322 322 321 321 321 321 321 321 321 321 320 320 320 320 320 320 321 320 321 321 320 321 322 324
337 337 335 332 331 332 332 334 336 338 339 341 344 344 344 344 345 345 345 345 346 346 345 344 344 343 343 343 343 339 335 334 331 328 328 329 329 331 331 330 330 330 330 329 328 327 326 325 324 325 326 326 326 325 324 324 323 322 322 322 321 321 320 320 320 320 320 320 320 320 320 320 320 320 320 321 321 323 324 325 327 327 326 326 326
336 336 336 335 335 334 335 336 338 341 343 344 345 345 345 345 345 345 346 346 346 345 345 344 343 343 342 342 342 341 340 340 335 330 329 328 326 327 327 327 328 328 328 327 326 325 325 325 326 327 327 326 325 324 323 322 322 321 321 321 321 321 320 320 320 320 321 321 321 321 322 322 323 324 325 327 329 331 333 335 337 338 337 337 337
337 337 337 337 337 337 337 338 340 342 344 345 345 345 346 345 345 346 346 346 345 345 344 343 343 343 343 342 342 342 342 342 341 338 335 331 327 324 324 325 325 325 326 325 326 326 327 327 327 327 326 325 324 322 322 321 321 321 321 321 321 321 321 322 322 322 322 323 324 325 327 329 331 333 334 336 338 339 340 341 342 343 343 343 342
340 340 340 339 340 339 338 338 340 341 342 343 343 343 344 345 345 346 346 346 345 345 343 343 343 343 343 343 343 342 342 342 343 343 339 334 330 326 324 325 325 326 327 327 328 328 327 327 326 325 324 323 322 322 322 322 322 322 322 322 322 323 323 323 324 326 327 329 332 334 336 338 339 340 341 342 342 342 343 343 343 343 343 343 343
342 343 342 341 341 340 339 338 339 341 341 341 342 342 344 345 346 346 346 346 345 345 344 344 343 343 343 342 342 342 343 342 343 344 341 337 333 331 331 330 330 330 331 330 327 326 326 325 324 323 322 322 322 322 323 323 324 324 324 325 325 326 327 329 330 332 335 337 339 340 341 342 342 342 342 342 342 342 342 343 343 343 344 344 344
343 344 344 344 343 342 340 338 338 340 341 342 342 343 344 345 345 345 345 345 345 345 345 345 344 343 343 343 343 343 343 343 343 344 344 340 336 335 335 334 334 334 332 328 325 324 323 323 322 322 322 323 323 324 325 326 327 329 330 331 332 333 334 335 337 338 340 341 341 342 342 342 342 342 341 341 341 342 342 343 344 345 346 347 346
344 345 346 346 345 343 342 340 338 339 341 342 343 344 344 345 345 345 345 345 345 345 345 345 344 344 343 343 343 344 345 344 343 344 344 343 340 337 336 338 341 341 337 330 326 324 323 322 322 323 324 325 327 329 331 333 334 335 336 337 338 339 339 339 340 341 341 341 342 342 341 341 341 341 341 342 343 344 344 345 346 348 349 349 349
345 345 346 346 346 345 343 341 338 337 340 342 344 344 344 345 345 346 346 345 345 345 345 345 344 343 343 343 344 345 346 346 345 343 343 344 343 338 335 338 341 344 344 339 330 325 324 324 323 325 326 329 332 335 337 338 338 339 339 340 340 340 340 340 341 340 341 341 341 341 341 341 340 340 342 345 347 348 349 349 350 350 351 351 351
346 346 346 346 346 346 344 342 339 337 338 340 343 344 344 345 346 346 346 346 345 345 345 344 345 344 344 345 346 346 347 346 345 343 343 344 344 342 339 339 340 343 346 344 336 330 328 327 325 327 330 333 336 337 338 339 340 341 342 343 342 342 342 342 342 342 341 341 340 340 340 340 340 343 346 348 349 349 349 350 350 351 351 351 350
345 345 345 345 345 344 343 342 340 338 338 339 342 344 345 346 346 346 346 346 346 346 346 346 346 346 346 348 348 348 348 347 344 342 343 344 344 344 342 342 342 343 345 344 340 336 334 331 327 328 333 336 337 338 339 341 343 345 346 345 345 344 343 342 342 341 341 341 340 340 340 341 343 347 348 348 348 347 347 347 348 348 348 347 347
343 343 343 344 344 342 342 342 341 339 338 340 342 344 345 345 346 347 347 347 347 347 347 347 347 347 347 348 349 348 347 345 344 343 343 343 344 343 342 342 343 343 344 344 342 339 335 332 330 330 333 336 337 340 342 344 347 348 347 347 345 344 343 341 339 339 339 339 340 341 342 344 346 347 348 347 344 341 339 340 341 342 341 340 338
342 342 343 343 343 342 341 342 342 340 340 342 343 344 346 346 346 347 347 347 348 348 348 348 348 347 347 347 347 345 345 344 344 343 343 343 343 343 342 342 343 344 343 342 341 337 334 332 332 332 334 336 339 342 343 345 347 347 346 345 343 343 343 341 340 339 340 341 342 343 344 345 346 347 346 342 336 332 332 331 332 333 332 331 329
343 344 344 344 343 342 341 341 343 343 343 344 344 345 346 346 347 347 348 348 348 348 348 348 348 348 347 346 344 343 343 343 342 343 343 343 343 343 342 342 342 343 343 341 339 335 334 335 334 335 337 339 340 341 344 346 346 344 341 339 340 343 343 342 342 341 342 343 343 344 344 344 345 345 341 335 330 329 328 327 327 327 326 325 325
344 345 344 344 343 342 341 341 343 344 344 344 344 345 346 346 347 347 348 348 349 348 348 348 348 347 346 345 344 343 343 342 342 341 342 341 342 343 343 342 342 342 341 340 337 335 338 341 341 341 341 341 339 339 343 345 344 341 337 334 337 343 345 343 343 343 343 343 343 342 342 344 344 340 335 331 330 328 326 325 325 324 323 323 322
344 346 344 343 342 342 341 342 343 344 344 344 343 345 346 346 347 348 348 349 349 349 348 348 347 346 346 346 344 343 344 343 342 341 341 340 341 341 342 342 341 341 340 339 338 339 342 344 344 344 343 341 339 337 339 342 343 342 338 334 334 340 344 343 343 343 342 341 341 341 343 343 341 336 332 331 330 328 327 326 324 324 323 322 322
343 345 343 342 342 342 341 341 343 344 344 344 344 344 346 347 348 349 350 349 349 348 349 348 347 346 347 347 346 345 345 344 342 340 340 340 340 339 340 342 341 339 338 338 340 341 343 343 343 345 345 343 342 338 335 337 340 341 339 336 333 335 340 342 342 341 340 340 341 343 343 341 337 334 333 332 332 331 329 327 326 325 324 323 323
343 343 343 342 342 342 341 340 342 344 345 345 344 344 345 347 349 350 349 349 348 348 348 347 346 346 347 347 346 346 345 344 343 341 340 339 340 339 339 340 341 339 338 339 339 340 341 342 342 343 346 346 344 341 336 335 337 337 337 336 332 332 335 337 338 338 338 340 340 341 339 337 335 334 334 333 333 332 330 328 327 325 325 324 323
343 343 343 342 341 341 340 340 342 345 345 344 344 344 345 348 349 349 348 348 348 348 348 346 346 346 347 346 345 344 344 344 344 343 341 339 338 338 339 339 340 340 340 341 340 338 339 341 341 341 344 346 345 342 338 336 337 335 335 336 332 330 332 334 336 336 336 336 335 335 334 333 334 333 333 333 333 332 331 330 328 326 325 325 324
344 343 343 342 341 341 341 341 343 345 345 344 344 344 347 350 349 348 348 348 347 348 347 346 346 346 347 346 343 343 343 343 344 345 343 341 339 339 339 339 339 340 341 342 340 338 338 339 341 341 343 345 344 343 340 338 338 336 335 335 332 330 331 334 336 335 332 331 330 330 330 330 331 331 332 332 332 332 332 331 329 327 326 326 325
344 344 343 343 342 342 342 342 343 345 344 344 344 344 347 349 349 348 348 347 347 348 347 346 346 346 347 345 342 341 343 343 344 345 344 343 344 343 342 340 339 340 340 341 340 339 338 339 341 342 343 344 344 344 343 340 338 336 334 335 334 331 329 331 331 331 329 328 328 328 328 328 328 329 330 331 332 332 333 332 331 328 327 326 326
345 345 344 344 342 342 342 342 343 344 344 344 344 345 346 348 348 347 347 347 347 348 348 346 346 346 346 344 342 342 344 343 344 344 343 343 343 344 344 342 340 339 339 340 340 340 339 339 341 342 343 345 345 345 345 342 338 337 337 336 336 333 331 330 328 329 330 328 328 327 327 327 327 327 328 329 331 332 334 334 333 330 328 327 327
345 344 344 344 343 342 342 343 343 344 344 343 344 344 345 346 347 347 346 347 347 348 348 346 346 346 346 344 342 344 345 344 344 343 342 342 341 342 345 344 340 340 339 340 340 340 340 340 341 343 343 345 346 346 346 343 338 338 340 339 339 337 334 333 332 334 336 335 333 331 329 328 327 327 327 328 330 332 334 334 334 332 330 329 328
345 344 344 344 343 342 342 342 342 343 343 343 343 344 345 346 347 347 348 347 346 347 347 346 346 346 345 345 343 344 345 345 345 344 342 342 341 342 344 344 341 340 340 340 341 341 340 340 341 342 343 345 346 347 346 343 339 340 342 341 342 342 339 339 338 339 342 342 340 338 336 333 330 329 329 328 329 332 334 334 334 334 332 331 328
345 344 344 344 344 344 343 343 342 343 343 343 344 345 345 346 348 347 347 346 345 345 345 345 346 346 345 345 344 344 345 346 346 345 343 342 342 342 343 343 342 342 341 341 341 341 341 340 340 341 343 345 347 347 346 344 343 343 342 341 342 343 343 344 345 344 346 347 346 344 342 340 337 335 334 330 329 331 333 334 333 334 334 333 330
343 343 344 344 344 344 344 344 343 343 343 344 345 345 346 347 347 345 343 342 342 343 343 343 345 347 346 345 344 344 346 347 348 348 345 343 343 344 344 344 343 343 343 342 341 340 339 339 339 340 342 346 347 348 347 346 346 345 344 343 343 343 342 344 346 348 348 349 350 349 346 345 343 342 341 337 333 331 333 334 334 334 334 334 332
343 343 344 345 344 344 344 344 345 344 344 344 346 347 348 348 347 343 341 340 340 340 340 341 343 346 346 344 344 345 346 348 349 349 348 346 345 346 346 346 345 344 344 343 342 340 338 338 340 340 343 347 348 348 349 348 347 347 346 345 345 345 344 343 345 348 349 350 351 350 349 348 347 347 346 342 340 337 335 336 335 334 334 334 333
342 342 343 344 345 345 345 346 347 346 345 345 347 348 348 348 346 343 341 340 340 339 339 339 340 342 344 344 343 345 347 348 348 349 349 348 347 347 347 347 347 345 344 344 343 343 341 339 339 340 343 347 348 349 350 348 347 348 347 346 346 347 348 347 346 346 348 350 350 350 349 348 348 348 348 346 345 343 340 340 339 335 334 335 334
341 341 342 342 343 344 345 346 347 347 346 346 347 347 347 347 346 345 344 342 341 339 340 339 339 339 341 343 344 345 347 347 347 348 348 348 348 348 348 347 346 346 345 345 344 344 344 343 341 342 344 346 347 349 350 348 347 347 346 345 345 348 350 350 348 346 346 347 348 349 348 347 348 348 348 347 347 346 343 343 342 338 336 338 337
341 342 342 341 341 342 342 344 345 345 345 345 345 345 345 345 346 346 346 344 342 341 341 340 339 338 339 341 343 345 346 346 346 347 347 348 348 347 347 347 346 346 346 345 345 344 345 346 345 346 347 347 349 350 350 349 347 346 345 343 343 346 348 349 349 348 345 345 347 347 346 347 349 349 348 346 346 347 346 345 344 341 338 340 340
342 343 343 342 341 341 341 342 342 343 344 345 344 343 343 343 344 343 344 344 343 343 344 342 341 340 338 338 341 342 343 344 346 347 347 347 347 347 347 347 347 347 346 345 345 344 344 346 348 348 349 349 350 349 349 348 347 346 343 340 340 342 343 344 346 347 344 343 346 347 345 347 351 351 349 346 344 347 348 347 347 346 343 342 342
342 342 343 342 342 342 342 343 342 341 342 344 343 342 341 342 342 342 341 342 342 343 343 343 342 342 340 340 340 342 343 344 345 346 347 346 346 346 347 347 347 347 346 346 346 345 343 343 344 346 346 347 348 347 346 344 342 341 341 340 340 340 339 338 339 341 341 341 345 348 347 347 351 352 351 348 345 346 348 347 347 348 348 346 345
342 342 341 341 341 342 343 343 341 340 340 342 343 341 340 340 341 341 341 341 341 341 342 343 343 343 342 341 341 342 343 344 345 345 345 345 344 344 346 347 347 347 348 349 349 348 346 344 343 343 342 342 343 343 341 340 339 340 342 345 344 341 336 334 335 336 340 343 346 348 348 347 350 352 351 349 347 346 346 346 347 348 349 349 347
342 342 341 340 340 341 341 341 341 340 339 341 341 341 340 340 340 340 341 341 341 341 341 341 342 342 342 342 341 341 342 343 344 344 344 343 342 342 344 346 346 347 349 351 351 350 348 346 345 344 343 343 342 342 342 342 341 341 342 343 342 339 335 334 336 339 342 346 348 348 348 347 349 351 350 349 348 346 344 343 345 347 349 349 348
343 343 342 342 342 343 342 341 341 340 339 339 339 338 338 338 338 338 340 340 340 341 341 340 341 341 341 341 341 341 342 342 343 344 343 342 341 339 341 343 345 346 348 349 350 350 349 347 345 345 345 345 344 344 344 343 343 342 340 338 337 335 335 337 341 344 346 348 349 349 349 348 349 349 348 348 347 344 341 340 342 345 347 349 349
341 343 344 343 343 344 343 342 341 340 338 337 337 337 336 336 336 336 337 338 338 339 339 339 341 341 341 341 340 340 340 340 340 341 341 342 341 340 339 341 343 345 347 347 348 349 350 348 346 345 345 345 344 343 344 343 342 341 339 338 336 335 337 342 345 346 347 349 349 350 350 350 350 348 346 348 345 339 337 337 338 342 346 348 349
338 341 344 346 345 345 344 343 342 341 340 339 337 336 336 335 334 334 334 335 335 336 336 337 338 339 339 339 339 340 340 340 339 339 339 339 339 340 339 340 341 343 345 346 347 348 348 348 347 345 344 344 342 340 341 342 340 338 337 337 337 337 339 342 342 344 348 350 350 351 351 351 350 347 347 347 341 334 333 334 336 340 345 348 348
337 341 344 346 346 346 345 344 344 343 342 341 339 337 336 335 334 333 332 333 334 334 334 335 335 335 335 335 336 336 337 338 337 337 336 335 334 335 336 337 338 340 341 342 343 345 345 346 345 342 341 340 339 336 337 339 338 335 335 335 335 337 339 338 337 339 345 348 349 350 350 349 347 346 346 342 334 330 331 333 335 339 344 347 348
337 341 344 345 346 345 346 346 346 346 345 343 342 340 338 336 333 332 331 331 332 333 333 333 333 333 332 332 331 331 331 331 331 331 331 330 329 329 331 334 338 340 341 341 342 342 342 342 342 341 340 339 337 335 333 334 334 333 334 334 333 333 334 335 334 335 339 341 342 344 344 343 342 341 338 331 326 327 330 332 334 339 343 346 347
340 342 343 344 345 345 345 345 344 345 346 345 344 343 341 339 337 334 331 331 330 330 330 330 331 331 331 329 328 328 327 327 327 327 327 327 327 328 331 338 342 344 344 344 344 344 344 344 343 343 342 340 339 336 335 334 333 333 334 335 333 331 331 332 332 332 334 335 336 338 341 341 339 337 332 327 325 326 327 330 334 338 342 345 347
342 344 344 344 345 346 345 345 344 344 344 344 343 344 343 343 341 339 336 334 332 331 330 328 328 328 327 327 326 326 326 326 325 326 326 327 328 328 330 336 341 343 345 345 345 345 345 345 345 344 344 342 339 338 337 336 335 335 336 336 336 335 335 335 333 332 334 334 335 338 342 342 340 337 333 329 326 325 325 328 334 339 342 345 346
344 345 345 345 346 347 347 347 347 347 346 344 343 343 344 344 344 343 342 340 339 338 336 334 332 330 328 326 325 325 325 325 325 325 325 326 327 327 327 329 332 337 341 343 343 342 342 343 342 343 344 343 340 339 339 338 338 338 338 338 339 338 339 339 337 333 334 334 335 337 338 339 338 336 333 330 327 326 324 326 333 340 343 345 346
349 347 347 347 347 347 346 346 347 348 347 347 344 343 344 344 344 344 344 343 342 342 341 341 339 338 336 334 332 329 327 326 325 325 325 325 327 327 327 327 328 330 334 337 338 338 339 340 340 340 341 341 339 339 339 338 338 339 339 339 340 340 341 343 341 336 334 337 340 337 333 333 335 332 330 329 329 329 327 325 329 337 343 346 346
351 350 349 349 349 348 347 347 347 347 347 347 347 346 344 344 344 345 345 344 344 344 343 343 342 342 341 341 340 338 336 333 330 329 328 327 327 327 328 328 329 329 330 333 335 335 337 338 339 339 339 340 339 338 337 337 337 338 339 340 341 341 342 344 344 340 337 339 343 340 332 329 331 330 328 328 329 330 330 328 327 330 336 342 344
351 351 350 350 349 348 347 347 347 346 346 346 347 348 347 345 345 345 345 345 345 345 345 345 344 344 344 343 343 343 343 342 340 339 337 335 334 334 333 333 332 332 331 332 333 333 334 335 335 335 335 336 336 335 334 335 336 338 339 340 341 342 343 344 344 342 340 339 342 341 334 328 328 329 328 328 329 329 331 331 329 327 328 332 336
351 351 351 351 350 349 348 348 348 347 346 345 345 347 348 348 347 345 344 344 344 344 344 345 345 345 345 345 345 345 345 345 345 345 344 343 342 342 342 341 340 339 338 336 335 334 334 334 335 335 335 336 336 336 337 338 340 340 340 341 342 343 344 345 344 343 342 341 342 344 339 329 328 331 330 328 331 331 331 330 329 327 325 325 329
352 351 351 351 351 350 349 349 349 349 347 346 346 347 348 348 348 347 346 344 344 343 343 344 344 345 345 346 346 346 346 346 346 346 346 346 346 346 346 345 345 345 345 344 343 342 340 339 340 340 340 341 341 342 343 343 344 344 344 344 344 344 344 344 345 345 344 341 343 346 342 331 329 333 332 330 332 333 331 331 329 327 325 325 328
352 352 352 353 351 351 350 349 350 350 350 348 347 347 347 347 347 347 346 345 345 344 343 343 343 344 345 346 346 346 346 346 345 346 347 347 347 347 347 347 347 347 347 347 347 347 346 345 345 345 345 345 346 346 346 346 346 346 347 347 347 347 346 346 346 346 344 341 341 345 345 336 331 333 333 332 335 335 333 331 330 327 325 324 327
351 351 352 353 353 353 353 352 352 352 352 351 350 348 348 347 347 346 346 346 346 345 345 344 344 344 344 345 346 346 346 346 345 346 346 347 348 348 348 347 347 347 348 348 348 348 348 348 348 348 348 349 349 349 348 348 348 348 348 349 349 349 349 349 349 348 347 345 342 344 345 339 331 333 336 336 337 337 334 331 329 327 325 324 325
347 349 350 351 352 353 353 353 353 353 353 353 353 352 351 350 349 348 347 347 347 347 347 348 347 346 345 346 347 347 348 348 349 349 349 350 350 350 350 349 349 348 348 348 349 348 349 348 349 349 349 350 350 350 350 349 349 349 349 350 350 351 350 351 351 350 350 349 345 345 347 341 335 338 340 339 338 336 333 331 328 327 326 325 325
343 346 348 349 350 350 351 352 353 353 353 353 353 353 353 352 352 351 350 349 348 348 349 350 350 349 349 349 350 350 351 351 352 352 352 352 353 353 354 353 352 351 350 349 349 349 349 349 349 349 350 351 352 352 351 350 349 349 350 351 351 352 352 352 352 351 352 350 347 347 348 345 341 341 341 342 343 338 332 330 328 326 326 326 327
Wind_Speed
14 14 15 17 18 19 19 19 18 17 17 16 15 14 13 13 12 11 10 9 7 6 4 5 6 8 8 9 9 10 10 9 8 7 6 6 5 4 4 5 4 4 4 4 5 6 6 6 5 5 5 5 6 7 7 7 7 7 7 7 7 7 7 8 8 8 8 8 8 8 8 8 8 8 8 8 8 8 7 8 8 8 7 7 7
13 14 15 15 16 17 17 17 16 15 15 15 14 12 11 11 10 9 8 7 6 5 4 4 5 7 8 8 9 9 10 10 9 8 7 6 4 4 4 4 4 4 4 5 6 6 6 6 5 5 5 6 6 7 7 7 7 8 8 8 9 9 9 9 8 9 9 9 9 9 9 9 9 9 8 9 8 8 8 8 8 8 8 8 8
13 13 14 14 14 14 14 14 14 14 15 15 13 11 10 9 9 8 7 6 5 4 4 4 6 7 8 9 9 10 10 10 10 9 8 7 6 4 3 3 3 4 5 5 6 5 6 5 5 6 6 7 7 7 8 8 8 9 9 9 10 10 10 10 9 9 9 9 9 9 9 9 9 9 9 9 8 8 8 8 8 8 8 8 8
13 13 13 13 12 12 11 12 12 13 13 14 12 9 9 9 9 9 8 7 6 5 5 6 7 9 9 9 9 9 10 11 11 10 9 8 8 6 4 4 4 4 5 5 6 6 6 6 6 6 7 8 8 8 8 9 10 10 10 10 10 10 10 10 10 10 10 10 10 10 10 10 10 9 9 9 9 9 9 9 9 9 9 9 9
13 12 12 11 11 10 10 10 11 11 12 12 10 9 9 9 10 9 7 7 5 5 6 6 7 8 8 8 7 7 8 9 10 10 10 8 8 8 7 7 7 6 6 6 6 6 6 6 7 8 8 9 9 9 10 10 11 11 11 10 10 10 10 10 10 10 10 10 10 10 10 10 10 10 10 11 11 11 11 11 11 11 11 11 11
12 11 11 10 10 10 10 10 10 11 11 10 10 10 10 10 9 8 7 6 4 3 3 4 5 6 7 6 6 6 7 8 8 9 9 7 6 7 8 8 7 7 7 6 6 6 7 7 8 9 9 10 10 10 11 11 11 11 11 11 11 11 11 11 11 11 11 11 11 11 11 11 11 12 12 12 13 13 13 14 14 14 14 13 13
11 11 10 10 9 9 9 10 10 10 10 10 10 10 11 10 9 8 6 5 3 2 1 1 2 4 5 5 5 6 7 7 7 7 8 7 5 5 6 7 8 7 7 7 7 7 8 9 9 10 10 11 11 11 11 11 11 11 11 11 11 11 11 11 11 11 11 11 11 11 11 12 12 13 14 14 15 15 15 16 16 16 16 16 15
11 11 10 9 9 9 9 10 10 10 10 10 10 11 11 10 9 8 6 4 3 2 2 2 3 3 3 4 4 5 6 7 7 6 6 7 6 4 5 7 10 10 9 8 8 8 9 9 10 10 11 11 11 11 11 11 11 11 11 11 11 11 11 11 11 11 11 11 11 11 12 13 13 14 15 16 16 17 17 17 17 17 16 17 17
11 11 10 9 9 9 9 9 11 11 10 10 10 11 11 10 9 7 6 5 4 3 2 3 2 2 2 4 4 5 6 6 6 5 4 6 6 5 4 5 7 9 10 10 9 9 9 10 10 10 10 11 11 11 10 10 10 10 11 11 11 11 11 11 11 11 11 11 12 12 13 14 15 16 16 17 17 17 17 17 17 17 17 17 17
11 11 9 8 8 8 8 9 10 10 10 10 10 10 10 10 8 7 6 5 4 3 2 2 2 2 2 4 5 6 7 6 4 3 3 4 5 4 4 3 5 7 9 10 10 10 10 10 10 10 10 9 9 9 9 9 10 10 11 12 12 12 12 12 12 12 12 12 13 13 14 16 16 17 16 16 17 17 17 17 18 17 17 17 17
11 11 9 7 7 7 7 8 8 9 9 9 9 9 9 9 8 7 7 6 4 2 2 2 1 1 1 2 4 5 7 6 2 1 1 2 3 3 4 4 4 5 7 9 10 10 10 10 9 9 9 9 9 9 9 9 10 11 12 13 13 13 12 12 12 12 12 12 13 14 15 16 16 16 16 17 18 18 18 18 18 17 17 16 16
10 10 9 7 7 7 7 7 7 8 9 9 8 8 8 8 8 8 7 6 4 3 3 2 2 1 1 1 3 4 5 4 1 1 1 2 2 3 3 4 4 5 6 7 8 10 10 10 9 9 8 8 8 8 9 9 11 12 14 14 14 14 13 12 12 12 12 13 13 14 15 15 16 16 17 18 18 18 18 17 17 17 17 16 16
8 8 7 7 6 6 7 8 8 8 8 8 8 8 8 8 8 8 7 6 4 4 4 4 3 3 3 3 3 3 3 3 1 1 2 3 2 3 3 4 5 5 5 5 7 8 9 9 9 8 7 7 7 8 10 11 12 13 14 14 14 13 12 11 11 11 12 13 14 14 14 15 16 17 18 18 18 18 18 17 17 17 17 17 17
6 6 6 6 7 7 7 8 8 8 8 7 7 8 8 8 8 7 7 6 5 4 4 4 3 4 3 4 3 2 1 1 1 1 2 3 3 3 3 4 5 5 5 5 7 8 9 10 9 8 7 7 8 9 11 12 14 14 14 14 14 13 12 10 11 11 12 13 13 14 14 15 16 17 18 18 18 18 17 17 17 18 18 19 19
7 6 6 7 7 7 8 8 8 7 7 7 7 7 7 8 7 7 7 6 5 4 4 4 4 4 3 4 4 4 4 3 3 3 2 0 1 2 3 4 4 5 5 6 8 8 9 10 10 9 9 9 10 11 12 13 15 16 15 16 15 13 12 11 11 12 12 12 13 14 14 15 15 16 17 17 17 17 17 17 18 18 19 20 20
7 7 7 8 7 8 8 8 8 8 7 7 7 7 7 7 7 6 6 5 4 3 2 3 3 2 3 5 5 6 7 7 6 5 5 4 3 2 2 3 4 5 6 7 7 7 8 9 10 11 11 12 13 13 13 14 15 16 17 17 16 13 12 11 11 12 12 13 13 13 14 14 14 15 16 16 16 17 17 17 17 18 19 20 21
7 7 8 8 8 8 9 9 9 8 7 7 8 8 8 7 7 6 5 5 4 3 2 2 2 1 3 5 6 6 8 9 7 5 5 6 5 5 3 2 3 5 5 5 5 5 6 7 9 10 11 13 14 14 14 14 15 16 17 18 17 15 13 12 11 11 12 12 12 12 12 12 13 13 14 14 15 15 16 16 17 18 18 20 21
8 9 9 8 8 8 9 10 10 9 7 8 9 9 9 8 8 6 5 5 5 3 2 2 2 1 2 4 5 6 8 10 9 7 7 6 5 5 4 3 3 4 5 4 3 4 5 6 6 8 11 13 15 15 15 15 16 16 16 18 18 17 14 12 11 11 11 11 11 11 11 11 12 12 13 13 14 14 15 16 17 18 19 20 22
8 9 9 9 9 9 10 10 10 9 9 9 9 9 10 10 9 8 6 5 5 4 2 3 3 1 1 4 4 5 8 9 10 10 8 6 5 4 4 4 4 3 4 3 3 3 4 5 5 7 10 13 15 16 16 15 15 16 16 17 18 17 15 12 11 11 11 11 11 11 11 11 11 12 13 13 14 15 15 16 17 18 19 21 23
8 8 9 9 10 10 10 11 11 10 9 9 9 10 10 10 10 9 7 6 5 4 2 3 4 2 1 3 3 5 7 7 8 9 8 6 6 5 5 4 3 2 2 2 3 4 4 4 5 6 9 12 14 16 16 15 14 14 15 16 17 16 15 13 12 11 12 12 12 12 12 12 12 13 14 14 15 16 16 17 17 18 20 21 23
9 8 9 9 10 11 11 11 12 11 10 10 10 11 10 11 11 10 8 7 5 3 2 3 4 3 2 2 2 3 4 3 5 6 5 6 7 8 8 6 3 1 1 1 2 3 3 4 4 6 8 11 13 15 16 15 13 12 13 15 15 15 14 14 14 13 13 13 13 13 13 13 14 14 15 15 17 17 17 17 17 19 20 21 23
10 9 9 10 10 11 11 11 11 11 11 11 11 11 11 11 11 10 9 8 6 4 3 4 4 4 3 3 2 2 1 1 4 5 4 5 6 7 10 9 6 4 4 4 2 1 2 3 5 6 8 10 12 14 16 16 13 11 12 14 14 14 14 14 14 14 15 15 14 14 14 15 15 15 16 16 17 18 18 18 18 19 20 21 23
10 10 10 10 10 11 11 11 12 12 12 12 11 11 11 11 11 11 10 10 9 7 5 5 5 4 4 4 3 2 3 4 6 6 5 5 6 6 8 9 7 5 6 6 3 2 2 3 6 7 8 10 11 13 16 16 12 10 11 13 14 14 13 13 13 14 15 16 17 17 16 17 16 16 17 17 18 18 19 19 18 19 20 21 23
11 10 10 10 11 11 11 11 12 13 12 12 11 11 11 11 11 10 11 11 11 10 8 7 7 6 6 6 5 4 3 5 7 7 5 5 6 5 7 9 7 5 6 6 4 3 3 3 5 7 8 9 10 13 15 14 11 9 11 12 13 14 13 13 13 13 15 16 18 18 18 18 18 18 18 18 19 19 19 19 19 19 20 21 23
11 11 10 10 11 11 11 11 12 12 12 12 12 11 11 11 11 10 11 11 11 11 10 9 8 7 7 7 7 6 3 4 6 7 6 5 5 5 6 8 7 6 7 6 5 6 6 6 6 7 8 9 10 12 12 11 10 10 11 12 14 14 14 14 13 13 14 16 18 19 19 19 20 20 20 19 19 19 18 19 20 20 20 21 22
11 10 10 10 10 11 11 11 11 11 12 13 12 11 11 11 11 11 10 10 10 11 10 10 10 9 8 8 8 7 4 1 4 6 5 5 5 5 6 7 6 6 7 7 8 8 8 8 8 8 9 9 9 9 9 9 10 11 12 13 14 15 15 15 15 14 15 16 17 18 20 20 20 21 21 20 20 19 19 19 21 21 21 21 22
10 9 10 10 9 10 11 11 11 11 12 12 12 11 11 11 11 10 10 10 10 10 10 10 10 10 9 9 9 8 5 1 2 3 4 3 3 4 6 7 8 8 7 8 9 9 9 9 9 9 8 7 7 7 8 9 10 11 12 14 15 15 16 17 17 16 15 16 17 17 19 20 20 21 21 21 21 20 20 20 21 22 22 22 22
10 11 11 10 9 10 10 10 10 11 11 11 11 11 10 10 10 10 10 9 9 10 9 10 10 10 10 11 10 9 7 5 3 2 2 3 3 4 6 8 10 11 10 10 11 10 10 10 10 10 9 8 7 8 9 10 10 11 12 14 16 16 16 17 18 17 16 16 17 17 18 20 20 21 21 21 20 20 21 22 22 21 22 23 23
11 12 12 11 11 11 10 10 10 10 10 10 10 11 11 10 10 10 9 9 9 9 9 10 10 10 11 12 11 10 8 8 7 6 4 4 5 6 7 8 10 11 12 13 13 12 11 10 9 9 9 9 9 9 10 11 11 12 14 15 16 16 16 17 18 17 17 17 18 18 18 19 19 19 21 21 20 20 20 22 23 21 21 24 25
11 12 13 12 12 12 11 11 11 10 10 10 10 10 10 9 10 9 8 9 9 8 8 9 9 10 10 11 12 12 11 11 11 10 9 7 8 8 9 10 10 11 12 13 13 12 10 8 7 7 8 9 9 9 11 12 12 14 16 18 17 16 16 16 17 18 18 18 18 19 18 18 18 18 19 20 19 19 19 21 22 22 21 22 25
12 12 13 13 13 13 13 13 12 11 10 10 10 10 9 9 9 9 8 9 9 8 8 8 8 9 10 10 12 13 13 13 13 13 12 11 11 11 11 11 11 12 12 12 13 13 11 9 7 7 7 9 10 11 12 13 14 16 18 19 18 18 18 17 17 19 19 18 18 18 18 17 17 17 18 20 19 18 19 20 22 22 22 22 24
13 13 14 14 13 14 14 14 13 12 11 11 11 10 9 9 8 8 8 9 9 8 8 7 7 8 9 9 10 11 12 13 13 13 14 13 13 13 13 12 11 11 10 10 12 13 11 11 9 9 10 11 11 13 14 15 16 17 17 17 18 18 18 18 19 20 19 18 17 18 18 17 17 17 17 19 20 18 18 19 21 22 23 23 23
15 14 15 14 14 14 14 14 13 13 12 12 12 11 10 9 9 9 9 9 9 8 7 8 8 8 9 9 9 9 10 11 12 13 14 13 13 14 13 13 12 11 9 9 12 13 12 10 9 10 11 12 13 14 15 15 15 15 16 16 17 19 20 20 20 19 17 16 16 17 18 17 16 17 17 19 20 19 17 18 19 21 23 23 22
17 16 15 14 14 14 14 13 13 12 12 12 13 12 11 10 10 10 10 9 9 8 8 8 8 9 9 9 9 9 9 11 12 12 12 12 13 13 14 14 13 12 10 10 12 14 14 11 10 10 10 11 13 13 14 14 14 14 16 17 19 20 21 21 19 15 13 14 15 16 16 16 15 16 17 18 20 20 18 17 18 20 22 22 21
18 18 18 16 15 15 15 15 15 14 13 13 13 13 13 12 11 11 11 11 10 10 10 9 8 9 10 10 10 9 9 11 11 10 10 10 11 12 14 15 15 13 12 12 13 14 16 15 14 13 12 13 14 14 14 15 16 17 17 17 18 19 19 18 15 13 12 13 14 14 14 14 14 15 17 18 20 20 18 16 16 18 20 20 19
19 19 19 18 18 17 18 17 17 16 15 14 14 14 14 13 13 12 12 12 12 11 11 10 9 10 10 11 11 10 10 11 10 10 10 10 11 12 12 14 15 15 14 15 15 15 17 17 17 16 16 16 17 17 17 18 18 19 19 18 17 17 16 15 14 13 13 14 14 14 14 15 15 16 17 19 20 20 18 16 16 17 19 19 17
20 19 19 19 19 19 19 19 18 17 16 15 14 14 14 14 14 14 14 14 13 13 12 11 11 11 12 12 11 11 12 12 11 11 10 11 11 12 13 13 14 16 17 17 18 18 19 19 20 19 18 19 19 18 19 20 19 18 17 16 16 15 14 14 15 15 15 15 15 15 16 17 17 18 18 19 20 20 18 16 16 17 17 17 16
21 19 18 19 19 19 19 19 18 18 17 16 16 15 15 15 15 15 16 16 15 14 14 13 13 13 13 13 13 13 14 14 13 12 12 12 12 13 14 13 13 13 14 15 16 18 19 20 21 20 19 19 19 18 17 18 18 17 16 16 15 14 14 15 15 15 16 17 16 17 17 18 17 18 18 19 20 20 17 16 16 16 15 15 14
23 21 20 19 19 19 19 19 19 18 17 16 16 16 16 16 17 17 16 16 16 16 15 15 15 14 14 14 14 14 14 14 13 12 12 12 12 13 12 10 8 9 9 10 11 13 15 16 17 18 17 17 17 17 16 16 17 17 18 18 17 16 16 17 16 16 16 17 17 17 17 16 17 17 18 20 21 19 17 16 15 14 14 14 14
24 23 22 21 20 20 20 20 19 19 18 17 16 16 16 16 16 17 17 17 16 16 16 16 16 16 15 15 15 15 14 14 13 13 13 13 13 12 11 9 8 8 10 11 12 14 15 16 17 17 18 18 17 16 16 16 17 17 18 19 20 19 19 19 18 18 18 17 17 17 16 16 18 19 20 21 21 18 17 16 14 13 12 13 13
27 26 24 22 21 21 20 19 20 20 20 19 18 16 16 16 16 16 16 16 17 16 16 16 17 17 17 17 17 16 16 16 15 15 14 13 13 13 12 11 11 12 13 14 15 16 17 19 19 19 20 21 19 18 18 17 18 19 19 20 21 21 22 22 21 19 19 19 19 18 18 19 22 22 22 21 19 18 17 16 13 12 12 12 13
28 27 26 25 24 23 22 21 21 22 22 21 19 18 17 16 16 16 16 16 16 15 16 16 16 17 18 19 19 19 19 18 17 16 16 15 15 15 15 14 14 15 15 16 17 17 19 21 21 22 23 24 22 21 22 21 20 21 21 22 23 23 24 25 24 20 19 19 20 20 20 22 24 24 22 20 18 17 17 15 13 12 12 13 13
29 28 27 25 25 24 23 23 22 23 23 22 20 19 18 18 18 18 18 17 17 17 17 16 16 15 16 17 18 19 21 21 20 19 18 18 18 18 18 17 17 17 17 18 18 19 20 22 23 24 25 26 25 24 24 24 23 23 23 24 25 26 26 27 27 24 21 20 21 23 23 23 24 25 22 19 17 16 16 15 13 13 13 13 13
29 28 27 25 25 24 24 24 24 24 24 23 22 21 21 20 20 21 21 21 21 22 21 20 19 18 17 17 17 18 18 19 20 21 21 21 20 20 20 20 20 20 20 20 21 21 23 25 26 26 26 27 27 26 26 26 26 26 27 27 28 28 28 29 29 27 24 23 24 25 25 24 24 25 23 19 17 17 17 16 15 14 14 14 14
30 29 28 26 25 25 25 26 25 25 24 23 23 24 24 23 23 23 24 24 25 25 25 24 23 22 21 20 19 18 17 17 18 19 19 19 19 20 21 21 22 22 22 22 23 24 25 27 28 29 28 28 29 29 28 28 28 29 29 29 29 30 31 31 30 28 25 24 25 26 27 25 25 26 24 20 18 18 18 18 16 15 14 14 15
31 29 29 28 28 27 26 25 25 25 24 23 23 24 26 26 26 26 26 25 26 26 26 26 25 24 22 21 20 19 17 17 17 17 18 18 18 19 20 21 22 21 22 22 23 23 24 26 27 28 27 27 28 28 26 26 28 28 29 29 29 30 32 32 31 29 25 23 23 25 26 24 22 24 23 19 18 18 17 16 16 14 14 13 14
29 28 28 28 29 29 28 26 25 24 23 23 23 24 26 27 27 28 28 28 27 27 27 27 27 25 24 23 22 21 19 18 17 16 17 18 19 20 21 22 22 22 22 22 22 22 23 24 26 27 27 26 27 28 26 26 27 27 28 29 30 30 31 32 31 29 25 22 21 24 26 23 20 22 22 18 17 17 15 15 15 14 13 13 13
26 25 25 25 26 27 28 27 27 26 24 24 24 25 26 27 27 28 29 29 29 29 29 28 28 27 26 25 24 23 22 21 19 19 19 20 22 24 24 25 25 26 26 24 24 24 25 25 27 27 28 28 28 29 28 27 28 28 28 30 30 29 30 32 31 29 26 22 20 22 27 25 21 22 21 18 18 18 16 14 15 15 15 14 13
21 21 20 19 20 21 23 25 26 26 26 26 26 27 28 28 28 29 29 29 29 30 31 30 30 29 28 28 27 27 27 26 25 24 24 24 27 28 28 29 29 29 29 28 27 27 27 28 29 29 30 30 29 29 28 27 28 27 29 31 29 28 29 31 31 30 28 25 22 22 27 28 23 21 21 20 19 19 16 13 14 15 16 15 14
17 17 17 15 15 16 18 20 22 24 25 26 27 28 29 29 30 30 29 29 30 30 30 30 29 29 29 29 30 30 30 29 28 28 27 28 30 31 31 32 33 33 33 30 29 29 29 30 31 31 31 31 30 30 29 28 27 26 29 31 28 27 29 30 31 31 30 29 25 23 27 29 25 22 23 23 21 19 16 14 13 14 15 14 14
11 13 14 13 14 14 15 15 16 17 20 24 26 27 28 29 30 30 30 31 31 31 30 30 29 29 29 29 29 30 30 30 30 30 30 30 31 32 32 32 34 36 34 32 31 31 30 31 32 32 32 31 31 31 30 29 28 27 28 29 28 27 28 29 29 30 32 32 27 25 28 31 28 26 25 25 26 23 19 16 15 14 14 15 15
Wind_Direction
154 150 145 143 141 141 140 140 139 139 140 139 137 134 132 131 129 127 124 123 119 111 95 78 75 73 70 67 64 64 63 59 55 56 55 56 59 61 65 66 65 59 52 45 40 35 29 25 22 22 23 25 31 34 33 30 29 30 31 32 28 24 21 20 21 18 18 16 12 10 8 6 6 4 0 0 1 357 354 351 349 346 341 335 328
153 151 151 150 148 147 146 145 144 144 145 143 139 135 136 137 136 134 131 127 121 114 98 77 65 61 63 66 66 65 63 58 52 49 48 44 41 44 48 48 49 46 45 40 35 31 28 28 29 33 37 39 42 40 39 36 36 37 36 34 28 25 23 21 21 20 20 19 16 13 12 11 10 8 5 4 3 1 0 358 357 353 349 344 339
151 152 154 155 154 154 154 155 154 151 149 146 142 139 143 145 144 140 131 120 112 109 92 74 67 65 68 71 72 69 62 58 53 47 41 38 34 33 38 40 39 40 42 41 39 38 39 39 40 43 44 44 46 44 43 42 41 41 37 33 28 26 23 21 19 19 20 18 17 16 14 13 12 10 8 7 3 1 359 358 357 353 349 345 340
156 156 156 155 155 154 157 160 159 155 153 153 152 150 152 151 146 139 129 120 111 104 91 85 80 72 70 68 68 65 59 55 51 44 36 37 40 42 49 52 53 52 52 53 52 54 53 51 49 48 48 48 48 47 46 44 42 40 36 33 29 27 24 21 20 20 20 19 19 19 16 14 12 9 6 3 358 355 351 348 345 342 340 336 333
163 163 163 161 157 154 156 161 161 159 159 163 164 160 158 156 149 140 129 123 112 105 96 91 83 72 66 58 53 49 46 44 39 38 38 39 45 53 63 64 65 64 62 63 60 62 61 59 57 54 54 53 52 50 47 44 42 39 36 33 29 28 26 24 24 23 23 21 20 18 15 11 7 2 358 354 350 346 342 337 335 332 329 326 324
162 162 164 162 159 158 160 162 161 161 162 164 164 161 160 159 154 142 132 128 119 116 104 88 73 62 59 51 43 34 32 33 29 32 36 38 47 59 67 66 67 66 62 62 61 63 64 62 61 59 58 55 53 50 47 44 42 39 37 34 31 30 27 26 25 24 22 20 17 13 9 4 358 353 349 345 341 338 334 330 328 324 322 320 319
159 158 160 159 160 165 166 164 162 162 160 158 158 158 158 158 153 144 138 140 142 149 137 53 26 30 37 37 33 24 23 27 24 27 32 35 43 54 63 64 65 62 62 66 63 63 66 65 64 63 61 58 55 52 48 45 42 40 37 34 32 29 27 24 22 20 18 14 9 4 359 353 348 344 340 337 334 331 328 325 322 319 317 315 314
162 158 157 159 162 167 166 163 164 163 156 152 153 154 156 155 153 150 153 162 181 213 268 295 316 344 6 14 15 10 11 14 12 18 28 33 39 51 73 74 65 59 60 65 64 61 63 66 65 65 64 61 58 54 50 47 43 39 35 32 28 24 21 18 15 12 9 4 358 353 348 343 341 338 336 334 330 327 324 321 318 316 313 311 310
163 162 160 165 168 168 165 164 168 167 160 156 156 158 160 160 159 159 165 176 191 208 241 278 304 316 331 346 345 348 356 359 360 8 27 34 40 58 86 81 59 50 53 59 62 60 60 64 65 65 64 62 61 56 51 45 38 32 26 22 17 13 9 6 2 359 355 351 346 342 339 338 338 337 336 333 330 327 325 322 319 318 316 314 314
168 170 169 172 173 170 167 168 172 170 168 166 165 167 168 168 169 169 173 180 185 198 219 249 289 320 335 333 323 326 335 341 354 19 36 46 52 65 78 71 53 48 51 57 63 62 58 62 65 65 61 58 57 52 44 34 27 23 19 15 10 4 360 355 351 346 342 339 336 334 335 336 337 338 336 335 333 331 328 326 323 322 322 321 320
177 180 176 173 171 170 166 168 175 174 174 173 171 173 174 176 177 175 179 181 183 205 226 246 286 353 18 346 325 316 314 317 336 55 49 64 72 80 83 75 64 57 53 57 62 61 56 59 64 65 58 51 46 39 31 25 21 18 15 11 7 2 356 351 346 341 337 333 332 333 335 337 338 338 338 338 337 335 332 328 325 324 324 323 321
183 181 175 172 170 167 165 169 175 176 176 175 175 180 182 184 182 181 183 182 190 226 251 278 303 285 259 299 324 311 296 295 292 145 126 109 105 107 99 85 75 68 61 58 59 59 57 57 62 63 55 45 35 28 25 21 15 11 7 3 0 357 354 349 344 340 337 336 336 338 339 339 339 339 341 342 342 341 339 335 330 328 327 326 325
184 178 173 175 176 176 177 176 172 173 175 175 178 183 186 188 190 191 189 190 203 232 258 287 309 301 296 322 333 316 278 268 251 156 138 131 128 122 105 90 89 83 71 61 59 61 58 56 58 57 50 38 28 26 26 20 12 6 0 357 354 351 350 346 344 342 342 344 343 343 341 340 341 342 344 345 346 347 345 342 338 335 333 332 333
185 180 180 186 188 186 183 179 175 176 177 179 183 183 185 190 195 200 199 202 213 227 250 274 303 308 326 353 360 342 300 288 273 162 135 130 127 119 106 95 91 83 71 65 66 67 62 55 52 51 48 39 32 31 29 22 15 8 2 358 354 350 348 347 348 350 351 350 347 344 342 342 344 345 347 349 349 349 347 345 342 340 338 337 337
188 188 194 196 196 191 185 181 181 181 179 181 185 185 188 191 193 202 203 206 216 230 247 262 280 293 328 359 360 345 344 349 333 309 296 289 96 89 96 95 81 65 61 71 74 73 68 57 49 48 48 41 35 32 27 24 19 14 9 4 358 352 351 352 355 356 355 351 347 344 343 344 346 348 350 351 350 348 346 345 343 341 339 338 338
191 193 199 200 198 194 189 187 186 183 181 182 186 188 187 189 192 197 198 200 210 217 222 251 268 276 343 356 350 348 355 354 341 320 304 305 329 9 45 69 60 47 57 80 83 79 72 57 47 45 45 40 34 30 23 20 17 13 11 7 1 354 351 353 355 354 352 349 347 346 345 346 348 351 352 350 348 347 345 344 343 342 340 338 337
192 193 200 201 198 197 194 191 189 187 188 185 185 186 182 186 193 189 187 190 197 200 192 210 239 251 357 0 350 349 355 352 346 337 325 321 324 336 349 10 24 35 58 83 81 75 67 52 42 36 35 34 31 27 21 17 14 11 10 8 3 356 352 350 349 351 350 350 349 348 349 349 351 353 351 349 347 346 346 346 345 342 341 340 338
188 192 198 199 199 201 197 193 192 191 194 191 189 189 187 188 190 186 185 189 193 200 203 202 213 225 1 1 347 344 353 358 357 346 339 337 341 351 356 358 5 37 66 79 64 63 58 45 36 24 22 24 24 23 18 14 11 9 10 10 5 358 355 350 349 354 356 356 356 354 355 355 355 355 353 351 349 349 349 347 347 344 342 342 340
184 190 195 196 199 202 197 193 193 195 197 197 195 190 188 189 190 191 195 195 196 196 193 203 217 229 348 356 354 349 349 359 5 358 351 348 349 1 8 11 22 47 72 73 54 57 52 39 28 17 16 18 18 18 16 11 7 8 11 13 8 2 0 358 359 7 8 7 6 4 3 2 1 360 357 355 355 355 354 351 349 345 344 343 343
184 188 192 196 200 199 196 195 196 200 202 199 196 190 189 191 193 198 205 204 200 200 206 217 220 229 302 343 350 342 339 353 8 6 3 357 351 354 351 353 16 37 57 61 56 59 52 33 17 12 13 14 14 12 10 7 4 5 9 14 12 7 8 11 12 17 17 16 14 11 10 8 6 4 1 0 1 0 359 355 351 347 345 345 346
185 187 191 196 202 201 199 198 200 205 205 199 194 193 196 201 201 205 212 209 206 218 245 225 220 229 253 304 317 315 332 7 13 10 16 9 3 0 345 326 313 339 330 332 19 41 39 22 9 10 10 11 12 8 4 2 0 3 7 13 14 11 14 20 22 23 20 18 17 14 13 11 8 6 3 3 4 4 2 358 353 349 347 347 348
188 187 190 194 200 203 202 201 202 203 204 200 197 199 206 211 212 215 218 216 214 228 238 221 221 232 246 273 291 288 314 7 356 0 10 1 359 1 350 329 304 309 314 300 298 323 350 1 3 7 5 2 6 4 358 356 358 2 6 12 14 11 12 19 24 26 22 19 18 16 13 11 8 6 4 5 5 5 4 360 355 352 350 349 350
192 189 191 194 196 198 198 199 201 202 203 203 202 205 210 214 219 225 228 227 224 228 230 222 225 235 246 259 266 287 337 349 346 350 353 348 348 353 352 335 309 305 311 292 273 276 301 344 357 358 351 348 358 0 354 354 358 3 8 13 15 11 8 11 18 22 21 19 18 16 15 11 9 6 4 5 5 5 5 2 357 354 353 351 351
197 191 190 194 194 193 194 196 199 202 205 207 207 209 214 218 223 228 232 232 229 229 229 226 230 242 247 246 249 266 320 346 347 347 341 339 344 344 348 341 318 295 298 291 288 308 308 322 343 347 340 336 349 356 354 355 359 4 11 14 14 11 6 5 9 15 17 17 16 15 14 13 11 8 5 4 4 5 5 3 360 358 355 353 352
202 194 191 194 197 197 198 199 201 204 207 212 214 215 220 225 226 227 228 230 231 232 232 230 233 241 241 233 237 251 280 347 356 354 342 333 343 344 339 340 327 297 293 295 299 308 305 302 313 328 333 331 342 353 357 1 360 2 9 10 10 9 5 360 358 3 10 12 12 11 11 11 10 8 5 4 4 4 5 5 4 1 358 356 354
208 199 194 196 200 203 204 204 205 207 211 215 219 221 225 228 227 226 227 229 231 231 231 231 232 239 240 230 230 238 240 354 11 4 352 341 349 352 338 334 331 317 310 306 304 305 304 303 306 313 317 320 334 347 354 1 356 356 1 2 3 4 2 358 350 350 357 3 5 6 6 6 7 6 4 3 4 5 6 5 6 5 2 359 357
209 206 204 200 200 205 208 209 209 209 212 216 219 224 230 232 231 230 230 229 229 231 232 229 230 237 241 235 230 231 228 234 357 4 5 354 353 353 340 334 331 327 322 317 315 310 304 301 303 305 305 310 325 334 337 345 345 346 350 352 354 355 357 357 349 343 346 353 357 0 1 1 2 3 2 1 1 4 6 6 5 7 6 3 1
206 209 210 205 203 206 209 213 212 212 216 219 222 230 235 236 237 234 232 231 230 232 233 232 232 236 239 236 231 229 235 248 267 292 334 334 325 322 325 329 329 326 321 316 316 313 306 298 293 295 294 292 299 308 315 325 331 334 338 343 345 346 348 352 349 341 341 347 351 353 355 356 357 359 0 360 359 360 4 5 5 7 8 7 5
207 212 216 212 208 209 210 214 216 219 225 227 227 232 236 238 237 231 227 230 232 232 233 236 236 237 238 237 234 233 241 254 261 266 274 289 297 300 307 314 319 321 319 314 310 308 307 302 291 288 286 279 282 291 300 309 316 322 328 332 335 335 337 343 345 341 340 344 347 348 350 352 354 356 358 359 359 358 359 3 4 5 7 9 8
210 215 221 220 216 214 212 216 221 223 226 231 233 235 239 240 238 233 232 234 234 234 237 239 239 240 240 237 236 239 248 257 260 265 269 274 282 288 296 302 307 310 311 309 304 299 297 296 288 284 278 270 270 278 287 296 304 312 319 323 322 322 324 330 336 336 336 339 342 344 345 348 351 354 355 357 359 359 358 360 2 3 3 4 5
216 217 223 225 225 221 216 217 221 222 223 228 235 240 242 242 241 240 243 244 241 241 244 243 242 245 243 238 237 243 252 257 257 261 267 270 275 279 285 291 296 300 304 306 302 296 293 290 279 276 281 274 269 275 282 290 296 300 307 312 312 313 315 320 325 328 329 331 335 338 341 344 347 349 352 355 357 358 358 357 359 0 360 358 359
223 221 223 228 229 227 224 223 223 223 223 226 233 240 242 242 242 242 244 248 249 251 252 249 247 248 248 244 242 246 254 256 255 258 264 270 272 273 276 281 287 293 303 309 306 302 301 297 282 271 276 278 274 276 282 287 292 294 298 302 305 309 312 315 320 324 325 326 329 332 335 338 341 344 346 350 352 355 356 355 354 355 357 356 356
232 229 229 230 231 232 232 230 230 228 226 228 233 238 241 241 241 243 243 246 251 255 254 250 248 250 252 252 251 255 260 261 259 259 262 268 270 269 269 272 277 283 290 301 304 302 301 302 295 281 276 277 277 279 284 288 290 294 296 297 301 306 310 314 319 321 321 323 327 329 330 333 335 337 341 344 347 349 352 352 352 351 354 355 355
238 238 237 237 236 238 238 237 238 235 231 232 235 239 243 243 240 241 244 249 254 257 256 255 256 257 259 260 260 262 267 271 272 268 267 269 271 268 263 264 269 272 275 283 293 296 295 296 297 293 287 287 288 289 292 294 295 296 297 298 302 304 307 313 318 320 321 323 326 327 328 330 329 331 336 340 341 342 346 349 349 349 351 352 354
240 241 241 242 241 243 244 244 243 239 235 234 236 241 246 247 245 243 243 248 253 256 259 261 263 266 268 269 268 267 269 273 277 276 274 273 274 272 266 263 266 267 268 276 285 292 294 294 293 295 296 297 297 298 300 301 303 304 305 306 305 305 307 312 315 318 321 322 322 323 324 325 325 328 333 336 336 336 339 343 345 345 348 350 352
239 241 243 244 245 246 247 247 245 242 238 237 238 241 244 248 250 248 246 247 250 253 257 259 261 264 267 268 268 268 269 272 273 274 274 271 272 275 271 267 266 266 268 273 278 284 289 291 294 296 298 299 301 304 305 304 305 306 308 309 308 307 307 308 310 312 315 316 315 316 318 319 322 326 330 332 332 333 335 338 342 343 345 347 349
240 241 243 246 248 247 246 247 247 246 245 245 245 244 245 248 252 252 249 248 249 252 255 256 257 258 261 264 266 266 267 270 273 275 276 274 273 275 275 272 269 268 268 270 273 277 280 285 291 296 300 302 304 308 308 306 306 305 306 307 308 309 308 306 308 309 309 311 311 311 312 314 319 324 327 326 326 330 334 337 340 342 344 345 344
240 241 243 246 248 247 247 249 251 253 254 254 253 252 251 251 253 255 253 250 250 251 253 256 257 257 259 262 264 264 265 268 273 275 277 280 280 280 280 279 275 271 271 272 274 276 278 283 289 297 303 307 308 310 311 309 308 307 308 309 309 310 313 314 313 308 304 306 308 309 311 314 318 321 321 321 324 329 334 335 338 341 342 342 340
238 239 242 244 246 248 249 251 253 257 260 261 260 258 257 254 253 254 255 253 250 250 252 255 258 261 263 265 265 265 265 267 272 275 277 281 283 282 278 274 273 275 277 282 282 281 283 286 291 299 306 310 311 313 315 313 309 310 314 315 313 313 317 319 317 313 308 307 309 310 312 315 318 319 320 323 327 329 332 334 335 337 338 337 335
238 238 239 242 245 248 250 252 253 255 259 261 262 262 262 261 260 258 257 257 255 255 256 256 258 261 263 266 268 269 270 271 273 275 278 281 282 281 272 258 259 272 280 287 289 288 289 289 292 297 302 306 310 314 317 317 316 318 321 319 317 320 322 319 316 314 312 310 311 312 313 316 318 320 322 327 330 329 329 331 330 328 330 330 330
238 238 239 242 244 248 250 253 255 256 257 259 259 262 265 268 270 271 270 270 270 270 269 267 266 266 265 267 268 270 273 274 274 275 277 279 280 280 275 263 260 268 276 283 287 289 290 290 291 295 297 299 305 309 312 316 319 321 323 322 322 325 325 321 316 315 311 309 309 310 310 312 313 315 319 324 329 328 327 328 323 318 321 324 324
241 240 240 241 242 245 248 251 255 257 259 260 259 260 263 268 273 276 278 279 280 281 281 279 277 274 272 272 271 272 274 274 274 274 275 276 277 278 279 275 271 271 274 278 283 286 290 291 292 295 295 296 298 302 304 307 310 313 315 318 319 321 323 321 317 313 311 309 308 305 304 306 307 309 313 318 324 325 324 324 317 308 312 319 320
246 245 244 244 244 246 248 249 252 255 257 259 260 260 261 263 267 270 273 275 277 278 280 281 282 282 280 279 277 276 275 274 274 274 274 275 275 276 277 277 276 276 275 277 280 283 287 291 293 296 297 296 296 297 299 301 303 306 309 311 312 314 318 318 316 312 310 310 308 302 299 300 301 303 307 311 315 317 318 319 313 302 303 310 315
239 242 243 246 247 249 251 252 254 256 256 257 258 260 261 261 262 264 266 269 272 274 276 278 280 283 285 287 286 284 281 279 278 278 278 278 278 279 279 279 279 278 277 277 279 281 285 287 290 291 293 294 295 295 297 300 302 304 305 306 307 310 311 311 311 311 310 309 305 299 296 296 298 300 303 306 306 306 307 309 308 300 295 299 305
232 234 236 240 243 246 250 252 254 257 258 258 259 260 262 263 263 263 264 266 268 270 273 274 277 280 283 286 287 287 288 288 286 286 284 283 283 283 284 284 283 282 282 281 281 282 284 285 286 286 287 290 292 294 298 302 304 304 304 304 305 306 306 305 304 306 309 308 304 301 298 298 300 301 302 304 304 302 300 300 300 297 291 290 292
236 235 236 238 241 243 246 250 253 255 256 258 259 260 261 262 263 264 265 266 267 268 269 270 271 273 276 279 281 281 282 284 286 289 289 289 289 288 288 288 287 287 287 286 284 283 282 282 283 285 287 290 292 295 299 302 303 303 303 303 303 302 301 300 299 301 305 306 306 304 300 301 304 302 302 307 307 302 298 295 291 288 287 286 284
242 242 240 240 241 243 246 250 253 255 256 258 259 259 260 261 262 264 266 267 268 269 269 268 267 267 268 271 273 274 273 273 274 277 280 283 284 285 285 286 286 287 287 287 287 286 284 283 284 286 290 292 294 295 298 299 298 299 300 300 299 299 298 296 296 298 301 302 304 302 299 300 303 300 302 309 308 301 296 291 286 281 280 281 280
243 245 242 240 240 242 245 248 251 254 255 256 258 259 260 260 261 262 264 266 268 269 270 270 268 267 266 267 268 270 271 270 271 272 274 277 279 280 281 281 282 282 282 283 285 287 287 287 288 290 292 294 294 294 294 294 294 296 298 296 294 294 295 294 294 294 296 297 297 297 295 294 296 297 300 305 303 297 293 286 280 275 273 274 273
243 244 243 241 241 243 245 246 248 250 251 251 252 254 256 257 257 258 260 263 265 267 269 270 269 267 265 265 267 269 270 272 275 277 277 278 279 280 280 281 280 280 280 282 284 286 288 290 290 292 294 295 294 293 291 290 290 292 293 290 291 293 293 292 291 291 293 293 291 290 290 290 292 296 298 300 299 294 290 283 276 272 270 268 265
248 247 248 249 249 250 251 250 250 251 250 249 249 250 251 253 255 256 258 259 261 264 266 267 266 265 264 265 268 271 273 275 278 280 280 280 280 280 281 282 281 280 280 281 284 286 288 290 292 293 294 294 294 292 289 287 285 286 286 286 290 293 290 289 290 290 291 290 287 288 288 287 290 295 295 297 295 288 283 284 280 272 267 263 260
258 256 256 257 257 259 260 260 260 259 256 253 251 251 251 252 254 256 257 258 260 262 263 263 263 262 262 264 266 270 273 276 279 281 283 282 281 281 282 283 282 281 280 282 285 287 289 291 292 293 293 292 292 290 288 285 282 281 281 283 288 290 288 288 289 289 289 287 285 287 287 286 289 291 291 294 294 288 283 284 283 275 265 259 260